Preview of NWS' New Version of Forecast
This preview is not operational and should not be used for support decisions.
Latest weather observations around

London, London-Corbin Airport-Magee Field (KLOZ)

Using English Units (Switch to International System of Units)
Date/ Time (EDT) Wind (mph) Vis. (mi) Weather Sky Cond. Temp (°F) Rel. Humidity Wind Chill (°F) Heat Index (°F) Pressure Precip. (in)
Air Dwpt 6 hour Altimeter (inHg) Sea level (inHg) 1 hr 3 hr 6 hr
Max Min
Jun 18 05:53 SSW 5 10 Clear CLR 70 69     97%     30.16 30.12      
Jun 18 04:53 Calm 10 Clear CLR 70 69     97%     30.15 30.1      
Jun 18 03:53 Calm 9 Clear CLR 70 70     100%     30.15 30.11      
Jun 18 02:53 Calm 10 Clear CLR 71 70     96%   72 30.15 30.1      
Jun 18 01:53 Calm 10 Clear CLR 72 71     97%   73 30.15 30.1      
Jun 18 00:53 Calm 10 Clear CLR 76 71     85%   77 30.15 30.1      
Jun 17 23:53 Calm 10 Clear CLR 75 72     90%   76 30.13 30.09      
Jun 17 22:53 SSW 5 10 Clear CLR 79 71     77%   82 30.13 30.09      
Jun 17 21:53 Calm 10 Clear CLR 79 71     77%   82 30.11 30.07      
Jun 17 20:53 Calm 10 Clear CLR 84 71     65%   89 30.11 30.07      
Jun 17 19:53 E 5 10 Clear CLR 87 69     55%   91 30.1 30.06      
Jun 17 18:53 ESE 5 10 Clear CLR 89 67     48%   92 30.1 30.06      
Jun 17 17:53 E 5 10 Clear CLR 90 65     44%   92 30.11 30.07      
Jun 17 16:53 5 10 Clear CLR 91 66     44%   94 30.12 30.08      
Jun 17 15:53 Calm 10 Mostly Clear FEW055 90 66     45%   93 30.13 30.08      
Jun 17 14:53 WNW 5 10 Mostly Cloudy BKN055 89 67     48%   92 30.14 30.1      
Jun 17 13:53 7 10 Clear CLR 89 67     48%   92 30.16 30.11      
Jun 17 12:53 W 5 10 Clear CLR 87 69     55%   91 30.17 30.12      
Jun 17 11:53 3 10 Clear CLR 85 70     61%   89 30.17 30.13      
Jun 17 10:53 Calm 10 Clear CLR 81 68     65%   84 30.16 30.12      
Jun 17 09:53 SSW 7 10 Clear CLR 79 68     69%   80 30.17 30.13      
Jun 17 08:53 Calm 10 Clear CLR 74 68     82%   75 30.17 30.13      
Jun 17 07:53 Calm 10 Clear CLR 69 66     90%     30.16 30.12      
Jun 17 06:53 Calm 7 Clear CLR 66 65     96%     30.15 30.11      
Jun 17 05:53 Calm 9 Clear CLR 66 65     96%     30.11 30.07      
Jun 17 04:53 SSE 3 8 Clear CLR 66 65     96%     30.09 30.04      
Jun 17 03:53 Calm 8 Clear CLR 67 65     93%     30.08 30.04      
Jun 17 02:53 Calm 8 Clear CLR 67 66     97%     30.09 30.05      
Jun 17 01:53 Calm 10 Clear CLR 69 66     90%     30.11 30.06      
Jun 17 00:53 Calm 10 Clear CLR 70 67     90%     30.11 30.07      
Jun 16 23:53 NNE 3 10 Clear CLR 71 67     87%   72 30.11 30.07      
Jun 16 22:53 Calm 10 Clear CLR 72 68     87%   73 30.1 30.06      
Jun 16 21:53 Calm 10 Clear CLR 75 69     82%   76 30.07 30.03      
Jun 16 20:53 Calm 10 Clear CLR 82 66     58%   84 30.06 30.02      
Jun 16 19:53 NE 5 10 Clear CLR 85 65     51%   87 30.05 30.01      
Jun 16 18:53 ENE 5 10 Clear CLR 87 65     48%   89 30.05 30.02      
Jun 16 17:53 NE 6 10 Clear CLR 88 63     43%   89 30.06 30.02      
Jun 16 16:53 5 10 Clear CLR 88 62     42%   88 30.06 30.02      
Jun 16 15:53 Calm 10 Clear CLR 87 61     42%   87 30.06 30.02      
Jun 16 14:53 NNE 6 10 Clear CLR 87 60     40%   87 30.07 30.03      
Jun 16 13:53 NNW 3 10 Clear CLR 86 60     42%   86 30.08 30.04     0
Jun 16 12:53 6 10 Clear CLR 84 58     41%   83 30.09 30.05      
Jun 16 11:53 3 10 Clear CLR 83 61     48%   83 30.1 30.06      
Jun 16 10:53 Calm 10 Clear CLR 81 62     53%   82 30.1 30.06   0  
Jun 16 09:53 Calm 10 Clear CLR 78 63     60%   78 30.11 30.06 0    
Jun 16 08:53 Calm 10 Clear CLR 71 64     79%   72 30.11 30.07      
Jun 16 07:53 Calm 10 Clear CLR 66 63     90%     30.11 30.07      
Jun 16 06:53 Calm 10 Clear CLR 60 59     96%     30.08 30.05      
Jun 16 05:53 Calm 10 Clear CLR 62 60     93%     30.07 30.03      
Jun 16 04:53 Calm 10 Clear CLR 61 60     97%     30.05 30.01      
Jun 16 03:53 NE 3 10 Clear CLR 62 61     96%     30.05 30.01      
Jun 16 02:53 Calm 10 Clear CLR 64 61     90%     30.06 30.01      
Jun 16 01:53 Calm 10 Clear CLR 65 62     90%     30.06 30.02      
Jun 16 00:53 Calm 10 Clear CLR 65 63     93%     30.05 30.02      
Jun 15 23:53 Calm 10 Clear CLR 69 63     81%     30.06 30.02      
Jun 15 22:53 Calm 10 Clear CLR 72 61     68%   72 30.06 30.02      
Jun 15 21:53 Calm 10 Clear CLR 76 60     58%   76 30.04 30      
Jun 15 20:53 NE 3 10 Clear CLR 78 61     56%   78 30.02 29.98      
Jun 15 19:53 NE 6 10 Clear CLR 82 63     53%   83 30.01 29.97      
Jun 15 18:53 NNE 5 10 Clear CLR 84 60     44%   84 30.01 29.97      
Jun 15 17:53 NNE 8 10 Clear CLR 86 59     40%   85 30.02 29.98      
Jun 15 16:53 NE 6 10 Clear CLR 87 59     39%   86 30.02 29.98      
Jun 15 15:53 Calm 10 Clear CLR 86 61     43%   86 30.03 29.99      
Jun 15 14:53 Calm 10 Clear CLR 85 62     46%   86 30.04 30      
Jun 15 13:53 S 5 10 Clear CLR 83 60     46%   83 30.06 30.02      
Jun 15 12:53 5 10 Clear CLR 81 62     53%   82 30.06 30.03      
Jun 15 11:53 S 5 10 Clear CLR 80 64     58%   82 30.08 30.04      
Jun 15 10:53 5 10 Clear CLR 78 66     67%   79 30.08 30.04      
Jun 15 09:53 3 10 Clear CLR 74 66     76%   75 30.09 30.05      
Jun 15 08:53 Calm 10 Clear CLR 70 65     84%     30.09 30.05      
Jun 15 07:53 NE 3 10 Clear CLR 65 63     93%     30.08 30.04      
Jun 15 06:53 Calm 10 Clear CLR 63 61     93%     30.07 30.03      
Jun 15 05:53 Calm 8 Clear CLR 62 61     96%     30.05 30.01      
May 15 07:53 SSE 5 7 Clear CLR 66 64     93%     30.01 29.97      
May 15 05:53 SSE 3 6 Fog/Mist CLR 64 63     96%     29.99 29.95      
May 15 04:53 SSE 3 7 Clear CLR 65 64     97%     29.98 29.93      
May 12 06:53 Calm 9 Clear CLR 62 59     90%     30.14 30.1      
May 12 05:53 Calm 10 Clear CLR 62 59     90%     30.12 30.08      
Jun 11 23:53 Calm 10 Clear CLR 71 62     73%   71 30.14 30.1      
Jun 11 02:53 Calm 10 Clear   64 60     87%     30.13 30.09      
Jun 10 10:53 SSW 5 10 Clear CLR 75 58     55%   75 30.12 30.09      
Jun 10 03:53 Calm 9 Clear CLR 57 54     89%     30.03 30      
Jun 09 06:15 Calm 1.75 Fog/Mist OVC001 51 49     92%     29.96        
Jun 08 19:53 NW 8 10 Mostly Cloudy BKN085 69 51     53%     29.91 29.89      
Jun 08 14:53 WNW 9 10 Cloudy SCT033 BKN047 OVC080 69 54     59%     29.94 29.92      
Jun 08 11:53 ENE 8 10 Mostly Cloudy BKN017 66 55     68%     29.98 29.95      
Jun 08 07:53 NNE 5 10 Cloudy BKN048 OVC070 55 51     86%     29.97 29.95      
Jun 07 21:53 NNE 9 10 Clear CLR 60 51     72%     29.99 29.96      
Jun 05 15:20 NNE 3 10 Mostly Cloudy FEW017 SCT029 BKN095 71 64     79%   72 29.82   0    
Jun 05 15:12 NNE 3 10 Mostly Cloudy SCT017 BKN029 BKN055 71 64     79%   72 29.82   0